QPF
0.00 0.00 0.00 0.00 0.00 0.00 0.01 0.01 0.00 0.00 0.00 0.00 0.01 0.01 0.03 0.01 0.00 0.00 0.00 0.01 0.00 0.01 0.01 0.02 0.02 0.02 0.01 0.01 0.00 0.00 0.00 0.00 0.00 0.01 0.02 0.03 0.05 0.07 0.13 0.14 0.09 0.09 0.08 0.06
0.01 0.00 0.00 0.00 0.00 0.01 0.02 0.02 0.01 0.00 0.00 0.00 0.01 0.02 0.02 0.01 0.01 0.01 0.01 0.01 0.00 0.01 0.01 0.01 0.01 0.02 0.03 0.02 0.01 0.01 0.00 0.00 0.00 0.01 0.01 0.02 0.03 0.05 0.08 0.12 0.13 0.09 0.08 0.07
0.01 0.00 0.00 0.00 0.01 0.01 0.01 0.02 0.02 0.01 0.01 0.00 0.01 0.01 0.01 0.02 0.03 0.02 0.01 0.01 0.01 0.01 0.01 0.01 0.02 0.03 0.04 0.04 0.03 0.02 0.01 0.01 0.01 0.01 0.01 0.02 0.02 0.04 0.06 0.08 0.10 0.10 0.09 0.09
0.00 0.00 0.00 0.01 0.01 0.01 0.01 0.01 0.01 0.01 0.02 0.01 0.01 0.01 0.01 0.02 0.03 0.02 0.01 0.01 0.01 0.01 0.01 0.02 0.02 0.02 0.03 0.04 0.04 0.03 0.02 0.02 0.02 0.01 0.02 0.02 0.03 0.03 0.04 0.04 0.05 0.06 0.06 0.09
0.01 0.00 0.00 0.00 0.00 0.01 0.01 0.00 0.01 0.01 0.01 0.01 0.01 0.01 0.01 0.01 0.02 0.03 0.02 0.01 0.01 0.01 0.02 0.02 0.02 0.02 0.02 0.03 0.03 0.03 0.03 0.03 0.03 0.02 0.02 0.02 0.03 0.04 0.04 0.04 0.04 0.03 0.03 0.04
0.00 0.00 0.00 0.00 0.00 0.01 0.01 0.01 0.01 0.01 0.02 0.02 0.01 0.01 0.01 0.01 0.01 0.02 0.02 0.01 0.01 0.01 0.02 0.03 0.03 0.02 0.01 0.02 0.03 0.04 0.04 0.04 0.05 0.05 0.04 0.04 0.05 0.05 0.04 0.04 0.03 0.02 0.02 0.02
0.00 0.00 0.00 0.00 0.01 0.01 0.01 0.02 0.02 0.02 0.02 0.01 0.00 0.00 0.01 0.01 0.01 0.01 0.02 0.02 0.02 0.01 0.02 0.03 0.03 0.03 0.02 0.02 0.02 0.03 0.04 0.06 0.06 0.08 0.09 0.07 0.06 0.05 0.05 0.04 0.03 0.02 0.02 0.03
0.01 0.00 0.00 0.01 0.01 0.01 0.01 0.01 0.01 0.01 0.01 0.01 0.00 0.00 0.01 0.01 0.01 0.01 0.02 0.01 0.01 0.01 0.01 0.02 0.03 0.03 0.03 0.02 0.03 0.03 0.04 0.05 0.06 0.08 0.10 0.08 0.07 0.06 0.05 0.04 0.03 0.03 0.02 0.02
0.02 0.01 0.01 0.01 0.02 0.01 0.02 0.01 0.01 0.01 0.01 0.01 0.00 0.00 0.00 0.00 0.00 0.01 0.02 0.01 0.01 0.00 0.01 0.01 0.01 0.02 0.02 0.02 0.02 0.03 0.04 0.05 0.06 0.08 0.08 0.07 0.07 0.07 0.05 0.05 0.04 0.03 0.03 0.04
0.02 0.02 0.01 0.02 0.02 0.02 0.01 0.02 0.02 0.02 0.02 0.01 0.00 0.00 0.00 0.00 0.00 0.01 0.03 0.03 0.02 0.01 0.01 0.01 0.00 0.01 0.02 0.02 0.02 0.03 0.04 0.04 0.05 0.06 0.06 0.05 0.05 0.06 0.06 0.05 0.06 0.05 0.06 0.06
0.02 0.02 0.02 0.01 0.02 0.02 0.02 0.02 0.02 0.02 0.02 0.02 0.01 0.01 0.00 0.00 0.00 0.01 0.03 0.05 0.04 0.02 0.01 0.01 0.01 0.02 0.02 0.02 0.02 0.03 0.02 0.03 0.03 0.03 0.04 0.04 0.04 0.05 0.05 0.05 0.05 0.05 0.05 0.06
0.02 0.03 0.02 0.01 0.01 0.02 0.03 0.03 0.02 0.03 0.02 0.02 0.02 0.01 0.00 0.00 0.00 0.01 0.02 0.06 0.05 0.03 0.01 0.02 0.02 0.02 0.02 0.02 0.02 0.02 0.01 0.01 0.01 0.01 0.02 0.02 0.03 0.04 0.04 0.04 0.04 0.04 0.04 0.04
0.02 0.04 0.04 0.02 0.02 0.02 0.02 0.02 0.02 0.03 0.03 0.02 0.02 0.01 0.00 0.00 0.01 0.01 0.02 0.05 0.06 0.03 0.01 0.01 0.01 0.01 0.01 0.01 0.01 0.01 0.01 0.01 0.01 0.01 0.01 0.01 0.02 0.03 0.03 0.03 0.03 0.03 0.03 0.03
0.03 0.04 0.03 0.02 0.02 0.01 0.01 0.01 0.02 0.02 0.03 0.02 0.01 0.01 0.01 0.01 0.01 0.01 0.02 0.04 0.06 0.03 0.01 0.01 0.00 0.00 0.00 0.00 0.00 0.01 0.00 0.00 0.01 0.01 0.01 0.01 0.01 0.02 0.02 0.02 0.02 0.02 0.03 0.03
0.03 0.03 0.01 0.01 0.00 0.00 0.01 0.01 0.01 0.01 0.02 0.02 0.01 0.01 0.00 0.00 0.00 0.01 0.02 0.03 0.04 0.03 0.02 0.01 0.00 0.00 0.00 0.00 0.00 0.00 0.01 0.00 0.01 0.01 0.01 0.01 0.01 0.01 0.01 0.01 0.01 0.01 0.01 0.01
0.03 0.03 0.01 0.01 0.00 0.01 0.01 0.01 0.01 0.01 0.01 0.01 0.01 0.01 0.00 0.00 0.00 0.00 0.01 0.03 0.03 0.03 0.03 0.02 0.01 0.01 0.01 0.01 0.01 0.01 0.01 0.01 0.01 0.01 0.01 0.01 0.01 0.01 0.01 0.01 0.01 0.01 0.01 0.01
0.03 0.02 0.02 0.01 0.01 0.02 0.01 0.01 0.01 0.01 0.01 0.01 0.02 0.01 0.01 0.00 0.00 0.00 0.01 0.02 0.03 0.04 0.04 0.03 0.01 0.01 0.01 0.01 0.01 0.01 0.01 0.01 0.01 0.01 0.01 0.01 0.01 0.01 0.01 0.01 0.00 0.00 0.00 0.01
0.03 0.02 0.02 0.02 0.02 0.02 0.01 0.01 0.01 0.01 0.01 0.02 0.02 0.01 0.01 0.01 0.00 0.00 0.00 0.01 0.03 0.03 0.04 0.03 0.03 0.03 0.02 0.01 0.01 0.01 0.01 0.01 0.01 0.01 0.01 0.01 0.01 0.01 0.01 0.01 0.00 0.00 0.00 0.00
0.02 0.03 0.03 0.03 0.02 0.01 0.01 0.01 0.01 0.01 0.01 0.01 0.02 0.01 0.01 0.01 0.01 0.01 0.00 0.00 0.01 0.02 0.03 0.02 0.04 0.04 0.02 0.01 0.01 0.02 0.02 0.02 0.01 0.01 0.01 0.01 0.01 0.01 0.01 0.01 0.01 0.00 0.00 0.00
0.03 0.03 0.04 0.03 0.02 0.03 0.03 0.01 0.01 0.01 0.02 0.01 0.02 0.02 0.02 0.01 0.01 0.00 0.00 0.00 0.00 0.01 0.02 0.02 0.03 0.03 0.02 0.02 0.01 0.02 0.03 0.02 0.02 0.01 0.01 0.01 0.01 0.01 0.01 0.01 0.01 0.00 0.00 0.00
0.03 0.04 0.04 0.03 0.02 0.02 0.01 0.01 0.01 0.02 0.02 0.01 0.01 0.01 0.01 0.01 0.01 0.00 0.00 0.00 0.00 0.00 0.01 0.01 0.02 0.02 0.02 0.02 0.01 0.01 0.03 0.03 0.02 0.02 0.01 0.01 0.01 0.01 0.00 0.00 0.00 0.00 0.00 0.00
0.01 0.01 0.01 0.02 0.02 0.01 0.00 0.01 0.02 0.02 0.01 0.01 0.01 0.01 0.01 0.01 0.00 0.00 0.00 0.00 0.00 0.00 0.00 0.01 0.01 0.01 0.01 0.01 0.01 0.01 0.03 0.04 0.02 0.02 0.02 0.02 0.01 0.01 0.00 0.00 0.00 0.00 0.00 0.00
0.00 0.01 0.01 0.01 0.01 0.01 0.00 0.01 0.01 0.01 0.01 0.01 0.01 0.01 0.01 0.00 0.00 0.00 0.00 0.00 0.00 0.00 0.00 0.00 0.01 0.01 0.01 0.01 0.01 0.01 0.04 0.05 0.03 0.03 0.03 0.03 0.02 0.01 0.01 0.01 0.01 0.01 0.01 0.01
0.00 0.00 0.01 0.01 0.00 0.00 0.00 0.00 0.00 0.00 0.00 0.00 0.00 0.01 0.01 0.00 0.00 0.00 0.00 0.00 0.00 0.00 0.00 0.00 0.01 0.01 0.01 0.01 0.01 0.02 0.03 0.05 0.04 0.03 0.03 0.03 0.03 0.02 0.01 0.01 0.01 0.01 0.01 0.02
0.00 0.00 0.01 0.01 0.00 0.00 0.00 0.00 0.00 0.00 0.00 0.00 0.00 0.00 0.00 0.00 0.00 0.00 0.00 0.00 0.00 0.00 0.01 0.01 0.01 0.01 0.01 0.01 0.01 0.02 0.03 0.04 0.04 0.03 0.03 0.03 0.03 0.03 0.03 0.02 0.01 0.01 0.01 0.02
0.00 0.00 0.01 0.00 0.00 0.00 0.00 0.00 0.00 0.00 0.00 0.00 0.00 0.01 0.01 0.01 0.01 0.00 0.00 0.00 0.01 0.01 0.01 0.01 0.01 0.01 0.02 0.01 0.01 0.01 0.02 0.03 0.03 0.03 0.03 0.03 0.03 0.03 0.02 0.02 0.02 0.02 0.02 0.02
MSLP
1015.92 1015.59 1015.24 1014.92 1014.69 1014.58 1014.58 1014.67 1014.82 1014.95 1015.04 1015.03 1014.91 1014.70 1014.42 1014.10 1013.80 1013.55 1013.38 1013.29 1013.30 1013.38 1013.54 1013.76 1014.03 1014.35 1014.72 1015.14 1015.60 1016.11 1016.63 1017.16 1017.68 1018.17 1018.60 1018.98 1019.31 1019.58 1019.79 1019.98 1020.13 1020.27 1020.39 1020.49
1015.64 1015.28 1014.92 1014.63 1014.43 1014.37 1014.43 1014.58 1014.76 1014.92 1015.00 1014.97 1014.80 1014.52 1014.16 1013.77 1013.39 1013.07 1012.84 1012.71 1012.67 1012.73 1012.85 1013.04 1013.28 1013.58 1013.93 1014.34 1014.81 1015.34 1015.91 1016.49 1017.07 1017.61 1018.10 1018.52 1018.88 1019.16 1019.39 1019.58 1019.74 1019.89 1020.02 1020.15
1015.35 1015.00 1014.66 1014.40 1014.26 1014.25 1014.37 1014.55 1014.76 1014.92 1014.96 1014.87 1014.63 1014.26 1013.81 1013.34 1012.89 1012.51 1012.24 1012.08 1012.02 1012.06 1012.18 1012.35 1012.57 1012.85 1013.18 1013.58 1014.05 1014.58 1015.17 1015.78 1016.38 1016.95 1017.47 1017.92 1018.29 1018.60 1018.84 1019.04 1019.22 1019.39 1019.56 1019.72
1015.08 1014.75 1014.46 1014.26 1014.18 1014.23 1014.38 1014.59 1014.79 1014.91 1014.90 1014.72 1014.38 1013.91 1013.37 1012.81 1012.30 1011.89 1011.60 1011.44 1011.39 1011.45 1011.57 1011.75 1011.97 1012.23 1012.54 1012.92 1013.37 1013.88 1014.45 1015.05 1015.65 1016.22 1016.74 1017.19 1017.56 1017.87 1018.13 1018.36 1018.58 1018.79 1019.01 1019.24
1014.82 1014.54 1014.31 1014.17 1014.16 1014.26 1014.44 1014.65 1014.82 1014.87 1014.77 1014.49 1014.05 1013.48 1012.85 1012.22 1011.68 1011.25 1010.97 1010.83 1010.83 1010.92 1011.08 1011.28 1011.50 1011.76 1012.05 1012.39 1012.80 1013.26 1013.78 1014.33 1014.89 1015.42 1015.91 1016.34 1016.70 1017.02 1017.30 1017.56 1017.83 1018.11 1018.41 1018.72
1014.51 1014.30 1014.14 1014.08 1014.13 1014.27 1014.47 1014.66 1014.78 1014.76 1014.56 1014.18 1013.63 1012.98 1012.28 1011.61 1011.05 1010.64 1010.40 1010.31 1010.37 1010.52 1010.72 1010.95 1011.19 1011.44 1011.70 1012.00 1012.34 1012.73 1013.16 1013.63 1014.11 1014.57 1015.00 1015.39 1015.73 1016.05 1016.35 1016.66 1017.00 1017.36 1017.76 1018.16
1014.11 1013.98 1013.91 1013.92 1014.02 1014.20 1014.40 1014.56 1014.62 1014.53 1014.25 1013.78 1013.15 1012.43 1011.70 1011.02 1010.48 1010.11 1009.93 1009.92 1010.04 1010.25 1010.51 1010.77 1011.02 1011.25 1011.47 1011.70 1011.95 1012.24 1012.57 1012.93 1013.30 1013.67 1014.02 1014.35 1014.67 1014.99 1015.32 1015.69 1016.10 1016.56 1017.06 1017.58
1013.60 1013.54 1013.55 1013.62 1013.78 1013.98 1014.18 1014.31 1014.33 1014.17 1013.82 1013.30 1012.63 1011.89 1011.15 1010.51 1010.02 1009.71 1009.60 1009.66 1009.85 1010.12 1010.42 1010.70 1010.94 1011.13 1011.29 1011.44 1011.59 1011.76 1011.96 1012.19 1012.45 1012.71 1012.98 1013.25 1013.54 1013.86 1014.23 1014.65 1015.15 1015.71 1016.33 1016.96
1012.98 1012.98 1013.05 1013.18 1013.38 1013.60 1013.79 1013.91 1013.89 1013.69 1013.31 1012.77 1012.10 1011.38 1010.69 1010.11 1009.68 1009.46 1009.42 1009.54 1009.79 1010.09 1010.41 1010.68 1010.89 1011.03 1011.11 1011.16 1011.20 1011.24 1011.31 1011.42 1011.55 1011.70 1011.89 1012.11 1012.38 1012.70 1013.11 1013.60 1014.18 1014.84 1015.56 1016.31
1012.28 1012.33 1012.45 1012.62 1012.85 1013.08 1013.27 1013.38 1013.34 1013.13 1012.75 1012.23 1011.60 1010.94 1010.33 1009.83 1009.50 1009.35 1009.38 1009.55 1009.83 1010.14 1010.43 1010.67 1010.82 1010.88 1010.88 1010.82 1010.74 1010.66 1010.61 1010.59 1010.61 1010.68 1010.80 1010.98 1011.23 1011.57 1012.01 1012.57 1013.23 1013.98 1014.79 1015.63
1011.57 1011.65 1011.80 1012.01 1012.24 1012.48 1012.67 1012.76 1012.73 1012.53 1012.18 1011.70 1011.15 1010.59 1010.07 1009.68 1009.44 1009.36 1009.45 1009.65 1009.92 1010.21 1010.45 1010.62 1010.69 1010.67 1010.56 1010.40 1010.21 1010.02 1009.86 1009.74 1009.67 1009.67 1009.75 1009.90 1010.16 1010.52 1011.01 1011.62 1012.34 1013.16 1014.05 1014.96
1010.93 1011.03 1011.19 1011.41 1011.65 1011.88 1012.06 1012.14 1012.11 1011.93 1011.63 1011.22 1010.76 1010.30 1009.90 1009.61 1009.45 1009.45 1009.56 1009.77 1010.02 1010.26 1010.44 1010.52 1010.50 1010.38 1010.18 1009.92 1009.63 1009.35 1009.11 1008.92 1008.80 1008.76 1008.81 1008.97 1009.23 1009.63 1010.15 1010.81 1011.58 1012.45 1013.38 1014.33
1010.41 1010.52 1010.68 1010.89 1011.12 1011.33 1011.49 1011.56 1011.52 1011.36 1011.10 1010.77 1010.40 1010.04 1009.75 1009.55 1009.48 1009.53 1009.67 1009.87 1010.08 1010.26 1010.37 1010.37 1010.26 1010.05 1009.77 1009.43 1009.07 1008.73 1008.44 1008.21 1008.06 1008.01 1008.06 1008.23 1008.53 1008.95 1009.51 1010.20 1011.00 1011.89 1012.83 1013.79
1010.03 1010.13 1010.29 1010.48 1010.68 1010.85 1010.97 1011.02 1010.96 1010.82 1010.59 1010.31 1010.02 1009.76 1009.57 1009.46 1009.46 1009.55 1009.71 1009.90 1010.08 1010.20 1010.24 1010.17 1010.00 1009.73 1009.38 1008.99 1008.60 1008.23 1007.91 1007.67 1007.53 1007.48 1007.56 1007.75 1008.08 1008.54 1009.13 1009.84 1010.65 1011.53 1012.46 1013.39
1009.76 1009.85 1009.99 1010.14 1010.30 1010.42 1010.50 1010.49 1010.41 1010.26 1010.05 1009.82 1009.60 1009.41 1009.30 1009.27 1009.33 1009.47 1009.64 1009.83 1009.99 1010.08 1010.08 1009.97 1009.75 1009.44 1009.07 1008.67 1008.26 1007.89 1007.58 1007.35 1007.22 1007.21 1007.32 1007.55 1007.91 1008.40 1009.02 1009.73 1010.53 1011.39 1012.27 1013.14
1009.55 1009.62 1009.72 1009.84 1009.94 1010.00 1010.01 1009.95 1009.83 1009.66 1009.46 1009.26 1009.09 1008.97 1008.92 1008.96 1009.08 1009.26 1009.46 1009.66 1009.82 1009.90 1009.89 1009.77 1009.55 1009.25 1008.89 1008.50 1008.11 1007.75 1007.47 1007.26 1007.17 1007.19 1007.33 1007.60 1008.00 1008.52 1009.14 1009.85 1010.63 1011.44 1012.26 1013.05
1009.31 1009.35 1009.42 1009.48 1009.52 1009.51 1009.45 1009.34 1009.18 1008.99 1008.79 1008.62 1008.49 1008.42 1008.44 1008.54 1008.72 1008.94 1009.19 1009.42 1009.60 1009.71 1009.72 1009.62 1009.44 1009.17 1008.84 1008.48 1008.13 1007.81 1007.56 1007.39 1007.32 1007.38 1007.55 1007.86 1008.28 1008.81 1009.44 1010.14 1010.88 1011.63 1012.38 1013.08
1009.00 1009.00 1009.02 1009.02 1008.99 1008.92 1008.80 1008.64 1008.45 1008.25 1008.06 1007.91 1007.83 1007.82 1007.90 1008.07 1008.30 1008.58 1008.87 1009.15 1009.37 1009.53 1009.59 1009.55 1009.42 1009.20 1008.93 1008.62 1008.31 1008.03 1007.81 1007.67 1007.63 1007.71 1007.90 1008.22 1008.66 1009.20 1009.82 1010.50 1011.20 1011.89 1012.56 1013.17
1008.60 1008.55 1008.51 1008.45 1008.35 1008.23 1008.06 1007.87 1007.67 1007.48 1007.32 1007.22 1007.19 1007.24 1007.39 1007.62 1007.91 1008.24 1008.59 1008.92 1009.20 1009.41 1009.54 1009.56 1009.49 1009.34 1009.13 1008.88 1008.61 1008.36 1008.17 1008.04 1008.01 1008.10 1008.30 1008.62 1009.06 1009.59 1010.20 1010.84 1011.50 1012.14 1012.73 1013.25
1008.15 1008.03 1007.92 1007.79 1007.65 1007.48 1007.29 1007.10 1006.92 1006.76 1006.66 1006.62 1006.66 1006.78 1006.99 1007.29 1007.64 1008.02 1008.42 1008.80 1009.14 1009.40 1009.59 1009.68 1009.67 1009.58 1009.42 1009.21 1008.98 1008.75 1008.57 1008.44 1008.41 1008.48 1008.67 1008.98 1009.40 1009.91 1010.49 1011.10 1011.71 1012.29 1012.81 1013.26
1007.70 1007.50 1007.31 1007.13 1006.94 1006.75 1006.56 1006.40 1006.26 1006.18 1006.15 1006.19 1006.32 1006.52 1006.81 1007.16 1007.56 1007.99 1008.43 1008.84 1009.22 1009.53 1009.76 1009.90 1009.94 1009.90 1009.78 1009.60 1009.39 1009.17 1008.97 1008.83 1008.77 1008.81 1008.97 1009.24 1009.63 1010.10 1010.64 1011.21 1011.78 1012.30 1012.77 1013.16
1007.31 1007.03 1006.77 1006.53 1006.31 1006.12 1005.96 1005.85 1005.79 1005.79 1005.87 1006.01 1006.23 1006.52 1006.87 1007.28 1007.72 1008.18 1008.64 1009.07 1009.47 1009.80 1010.06 1010.23 1010.30 1010.29 1010.19 1010.02 1009.81 1009.58 1009.36 1009.19 1009.09 1009.08 1009.19 1009.42 1009.75 1010.17 1010.66 1011.18 1011.70 1012.17 1012.59 1012.92
1007.04 1006.67 1006.34 1006.05 1005.82 1005.65 1005.54 1005.51 1005.55 1005.66 1005.85 1006.10 1006.42 1006.79 1007.20 1007.65 1008.12 1008.59 1009.05 1009.49 1009.88 1010.22 1010.47 1010.65 1010.74 1010.73 1010.63 1010.46 1010.24 1009.98 1009.73 1009.52 1009.37 1009.31 1009.35 1009.51 1009.78 1010.14 1010.57 1011.03 1011.49 1011.91 1012.28 1012.57
1006.86 1006.41 1006.03 1005.72 1005.50 1005.37 1005.33 1005.39 1005.54 1005.77 1006.07 1006.44 1006.85 1007.29 1007.75 1008.23 1008.71 1009.18 1009.63 1010.04 1010.42 1010.73 1010.97 1011.14 1011.21 1011.20 1011.09 1010.91 1010.67 1010.39 1010.10 1009.84 1009.64 1009.52 1009.50 1009.58 1009.78 1010.06 1010.42 1010.81 1011.20 1011.57 1011.89 1012.14
1006.73 1006.23 1005.82 1005.51 1005.32 1005.25 1005.30 1005.46 1005.72 1006.07 1006.49 1006.95 1007.44 1007.94 1008.45 1008.95 1009.42 1009.88 1010.30 1010.68 1011.02 1011.30 1011.51 1011.65 1011.70 1011.67 1011.55 1011.35 1011.09 1010.78 1010.47 1010.17 1009.92 1009.74 1009.65 1009.67 1009.78 1009.99 1010.26 1010.57 1010.89 1011.19 1011.46 1011.67
1006.57 1006.05 1005.64 1005.36 1005.22 1005.23 1005.38 1005.65 1006.02 1006.48 1007.00 1007.54 1008.10 1008.65 1009.19 1009.69 1010.15 1010.58 1010.97 1011.31 1011.60 1011.84 1012.02 1012.13 1012.16 1012.10 1011.97 1011.75 1011.48 1011.16 1010.83 1010.50 1010.22 1009.99 1009.85 1009.80 1009.84 1009.96 1010.15 1010.38 1010.62 1010.86 1011.06 1011.23
Thickness
5570 5573 5573 5575 5573 5575 5575 5576 5579 5579 5574 5573 5581 5586 5589 5589 5588 5592 5594 5596 5597 5597 5597 5597 5597 5598 5599 5601 5603 5606 5607 5608 5609 5610 5610 5610 5610 5610 5609 5609 5609 5609 5608 5608
5563 5562 5563 5561 5561 5561 5562 5565 5570 5568 5565 5566 5572 5579 5586 5584 5584 5587 5588 5589 5589 5589 5589 5588 5588 5589 5590 5591 5593 5596 5598 5599 5600 5600 5600 5600 5600 5600 5599 5598 5599 5599 5600 5599
5556 5553 5550 5550 5551 5553 5555 5558 5560 5558 5556 5557 5561 5576 5582 5582 5580 5580 5580 5581 5581 5580 5580 5580 5579 5579 5580 5581 5583 5585 5587 5588 5589 5589 5589 5590 5590 5589 5589 5590 5590 5591 5591 5590
5542 5540 5540 5543 5544 5545 5550 5549 5547 5546 5550 5557 5555 5568 5583 5579 5576 5575 5575 5574 5573 5572 5572 5570 5569 5569 5570 5571 5572 5574 5576 5577 5577 5579 5580 5582 5583 5584 5582 5581 5582 5582 5582 5581
5532 5529 5531 5534 5536 5534 5538 5535 5537 5538 5541 5544 5549 5550 5577 5571 5571 5574 5572 5569 5567 5565 5563 5561 5560 5560 5560 5560 5562 5564 5565 5566 5567 5568 5570 5571 5573 5573 5572 5572 5572 5573 5573 5572
5521 5519 5520 5523 5524 5526 5525 5526 5527 5530 5534 5538 5547 5549 5568 5570 5567 5567 5564 5561 5559 5557 5555 5553 5551 5551 5551 5551 5551 5553 5555 5556 5557 5558 5559 5560 5562 5563 5563 5563 5564 5564 5564 5564
5515 5515 5512 5512 5516 5517 5518 5524 5531 5533 5534 5545 5540 5541 5558 5559 5555 5553 5551 5552 5551 5549 5547 5545 5544 5543 5543 5542 5543 5544 5545 5546 5547 5548 5549 5550 5551 5552 5552 5553 5554 5555 5556 5556
5510 5514 5506 5505 5507 5509 5512 5517 5526 5535 5543 5546 5530 5540 5554 5546 5541 5540 5540 5541 5540 5540 5540 5537 5536 5535 5534 5533 5534 5535 5536 5536 5537 5537 5538 5539 5539 5540 5541 5542 5544 5545 5546 5547
5502 5503 5495 5494 5496 5500 5504 5509 5510 5512 5510 5521 5537 5538 5540 5538 5535 5533 5532 5530 5531 5532 5530 5528 5527 5526 5525 5524 5524 5525 5525 5526 5527 5527 5527 5528 5529 5530 5531 5531 5532 5534 5535 5536
5482 5484 5486 5484 5486 5486 5492 5496 5499 5503 5511 5527 5537 5536 5543 5534 5530 5527 5524 5523 5522 5520 5519 5518 5517 5516 5515 5514 5513 5513 5514 5514 5515 5516 5517 5518 5519 5519 5520 5521 5522 5523 5524 5525
5470 5473 5477 5478 5479 5485 5481 5481 5485 5492 5497 5514 5526 5536 5528 5523 5519 5516 5514 5513 5511 5509 5509 5507 5506 5505 5504 5503 5502 5502 5503 5503 5504 5505 5506 5508 5509 5509 5510 5511 5511 5512 5513 5514
5461 5467 5473 5472 5467 5465 5473 5477 5478 5484 5484 5488 5505 5520 5510 5508 5505 5504 5503 5501 5500 5498 5497 5496 5496 5496 5495 5494 5493 5493 5493 5493 5494 5495 5496 5497 5498 5499 5500 5501 5501 5502 5503 5503
5453 5456 5470 5475 5466 5456 5458 5462 5461 5461 5468 5477 5491 5510 5496 5494 5494 5493 5492 5492 5490 5489 5487 5487 5486 5486 5486 5485 5485 5484 5485 5485 5485 5485 5486 5488 5488 5490 5491 5491 5491 5492 5493 5493
5450 5448 5458 5472 5472 5459 5453 5452 5451 5452 5463 5473 5484 5497 5494 5489 5486 5485 5484 5483 5481 5480 5479 5478 5478 5477 5477 5477 5476 5476 5476 5475 5476 5476 5477 5479 5480 5481 5481 5481 5481 5482 5483 5483
5442 5444 5442 5445 5446 5445 5447 5449 5447 5447 5457 5465 5479 5479 5486 5481 5476 5475 5474 5473 5472 5472 5470 5469 5469 5469 5469 5469 5468 5468 5467 5466 5466 5467 5469 5470 5470 5471 5471 5470 5471 5472 5472 5473
5431 5433 5431 5436 5438 5437 5440 5447 5447 5445 5449 5454 5458 5466 5473 5468 5465 5465 5467 5465 5464 5465 5463 5461 5460 5460 5460 5460 5460 5459 5459 5458 5458 5459 5460 5460 5460 5460 5460 5460 5461 5462 5462 5462
5426 5425 5432 5445 5433 5433 5449 5453 5446 5447 5446 5450 5458 5468 5460 5457 5457 5459 5458 5456 5456 5456 5455 5454 5453 5452 5451 5450 5450 5450 5450 5450 5450 5451 5451 5451 5451 5451 5450 5451 5451 5452 5452 5451
5417 5420 5424 5431 5429 5438 5463 5444 5442 5442 5443 5441 5446 5450 5449 5449 5449 5450 5449 5448 5448 5447 5447 5446 5445 5444 5444 5442 5441 5441 5441 5441 5442 5443 5443 5443 5442 5442 5442 5442 5442 5442 5441 5441
5414 5416 5420 5424 5433 5449 5453 5438 5432 5432 5442 5439 5435 5438 5438 5437 5439 5446 5443 5439 5438 5437 5437 5438 5436 5435 5435 5434 5433 5433 5433 5434 5434 5435 5435 5434 5434 5434 5434 5433 5433 5432 5431 5431
5404 5406 5414 5416 5428 5442 5454 5434 5426 5427 5440 5438 5431 5431 5431 5429 5440 5447 5437 5430 5429 5428 5427 5427 5427 5426 5426 5426 5425 5424 5425 5426 5426 5425 5425 5425 5425 5425 5424 5424 5423 5422 5421 5421
5402 5403 5407 5414 5422 5441 5438 5422 5420 5432 5441 5430 5426 5425 5423 5424 5429 5428 5424 5421 5420 5419 5418 5418 5417 5418 5418 5417 5415 5416 5417 5418 5417 5417 5417 5417 5416 5416 5416 5415 5414 5413 5412 5412
5413 5412 5405 5409 5416 5434 5423 5415 5423 5430 5424 5420 5419 5417 5416 5416 5415 5414 5413 5412 5411 5410 5409 5409 5409 5409 5408 5407 5406 5407 5408 5408 5408 5408 5409 5409 5408 5408 5407 5406 5405 5404 5403 5403
5409 5416 5419 5418 5431 5427 5417 5417 5416 5412 5412 5412 5411 5409 5406 5406 5406 5405 5404 5403 5402 5402 5401 5400 5399 5399 5399 5398 5397 5397 5399 5398 5399 5400 5401 5401 5401 5400 5399 5398 5397 5395 5395 5394
5406 5396 5401 5405 5420 5416 5412 5409 5406 5404 5404 5403 5401 5399 5397 5397 5397 5396 5395 5394 5393 5393 5392 5391 5390 5391 5390 5389 5388 5389 5389 5389 5390 5392 5393 5393 5393 5393 5391 5389 5388 5387 5386 5385
5410 5393 5395 5402 5411 5407 5410 5406 5403 5399 5396 5393 5392 5391 5389 5389 5389 5388 5387 5386 5385 5384 5383 5382 5382 5382 5382 5381 5380 5381 5381 5381 5383 5384 5385 5385 5385 5384 5383 5381 5380 5379 5378 5377
5403 5399 5403 5416 5413 5407 5411 5404 5396 5392 5389 5387 5385 5384 5383 5381 5381 5380 5379 5378 5376 5375 5375 5374 5374 5373 5373 5372 5372 5372 5373 5373 5374 5376 5377 5377 5376 5375 5374 5373 5372 5370 5368 5368